S5

operational
NORAD ID: 44065 Int'l Des: 2019-009 Owner: AFRL Country: US
HEOCIRCULAR

About S5

Description loading...

Live Position

Loading 3D Globe...

Upcoming Passes

Altitude History

Altitude vs Time

uPlot chart will show altitude changes over time

Two-Line Element Set

1 44065U 19009D 26061.47784858 .00000006 00000-0 00000-0 0 9990
2 44065 6.2902 72.1128 0003689 177.3776 283.9518 0.99339146 25383
Epoch: Mar 2, 2026 • Age: 32 hours

Current Status

Altitude 36059.8 km
Velocity 3.06 km/s
Sub-Earth Point 4.31°N, 161.87°W
Launch Date Feb 22, 2019
Age 7 years
Type other

Technical Details

Classification Payload
Mass 61.00 kg
Dry Mass 55.00 kg
Total Mass 61.00 kg
Length 0.50 m
Diameter 0.50 m
Span 0.50 m
Shape Box+cyl+panel
Manufacturer BLCAN
Bus Type Podsat
Phase Status In Orbit
Owner/State AFRL/US

Large Constellations

Loading constellations...